Tracking 19176 objects as of 26-May-2018
HD Live streaming from Space Station
objects crossing your sky now

NOAA 16 DEB

Track NOAA 16 DEB now!
10-day predictions


NORAD ID: 41067
Int'l Code: 2000-055AA
Perigee: 854.1 km
Apogee: 862.1 km
Inclination: 98.8 °
Period: 101.9 minutes
Semi major axis: 7229 km
RCS: Unknown
Launch date: September 21, 2000
Source: United States (US)
Launch site: AIR FORCE WESTERN TEST RANGE (AFWTR)

Note: This is SATELLITE DEBRIS
aabbcc
Your satellite tracking list
Your tracking list is empty




NASA's NSSDC Master Catalog

Two Line Element Set (TLE):
1 41067U 00055AA  18145.44672430 -.00000033  00000-0  57597-5 0  9992
2 41067  98.8367 218.7111 0005572  55.5702 304.5996 14.12466630128623
Source of the keplerian elements: AFSPC